Location: Bu�n Treun
(12.1333°N, 108.3167°E)
Time: 13:12:47
(UTC+00:00)

Landsat 5 - Pass Details

Date: 13 July 2020
Orbit: 529 x 654 km, 98.2° (Epoch: 06 August)

Event Time Altitude Azimuth Distance (km) Brightness Sun altitude
Exits shadow 20:37:55 66° 79° (E) 618 3.6 -25.2°
Maximum altitude 20:37:56 66° 78° (ENE) 618 3.6 -25.2°
Drops below altitude 10° 20:41:50 10° 356° (N) 1,821 6.3 -24.4°
Sets 20:43:56 0° 353° (N) 2,698 7.2 -24.0°
